Location: Unspecified
(0.0000°N, 0.0000°E)
Time: 01:35:53
(UTC+00:00)

Transit 2A Rocket - All Passes

Search period start: 23 April 2018 00:00
Search period end: 03 May 2018 00:00
Orbit: 591 x 912 km, 66.7° (Epoch: 22 April)

Date Brightness Start Highest point End Pass type
(mag) Time Alt. Az. Time Alt. Az. Time Alt. Az.
23 Apr - 03:54:03 10° N 03:58:01 37° ENE 04:02:05 10° SE visible
23 Apr - 16:22:25 10° SSW 16:28:30 69° WNW 16:34:21 10° NNE daylight
24 Apr - 03:13:01 10° NNE 03:15:39 16° ENE 03:18:21 10° ESE visible
24 Apr - 04:54:48 10° WNW 04:57:54 19° WSW 05:01:06 10° SSW visible
24 Apr - 15:40:04 10° S 15:46:06 62° ESE 15:51:55 10° NNE daylight
24 Apr - 17:27:24 10° W 17:28:27 10° WNW 17:29:28 10° WNW daylight
25 Apr - 04:11:23 10° NW 04:15:29 45° WSW 04:19:45 10° S visible
25 Apr - 14:58:21 10° S 15:03:40 31° ESE 15:08:51 10° NE daylight
25 Apr - 16:41:28 10° WSW 16:46:02 22° WNW 16:50:30 10° NNW daylight
26 Apr - 03:28:51 10° NNW 03:33:06 71° ENE 03:37:31 10° SSE night (unlit)
26 Apr - 14:17:38 10° SSE 14:21:12 16° ESE 14:24:43 10° ENE daylight
26 Apr - 15:57:56 10° SW 16:03:40 43° WNW 16:09:12 10° N daylight
27 Apr - 02:47:05 10° N 02:50:45 28° ENE 02:54:33 10° SE night (unlit)
27 Apr - 04:31:56 10° W 04:33:05 11° WSW 04:34:14 10° SW night (unlit)
27 Apr - 15:15:10 10° SSW 15:21:17 85° WNW 15:27:10 10° NNE daylight
28 Apr - 02:06:46 10° NE 02:08:24 12° ENE 02:10:04 10° E night (unlit)
28 Apr - 03:47:03 10° NW 03:50:37 25° WSW 03:54:20 10° SSW night (unlit)
28 Apr - 14:33:01 10° S 14:38:53 49° ESE 14:44:33 10° NE daylight
28 Apr - 16:18:19 10° W 16:21:12 14° WNW 16:24:02 10° NW daylight
29 Apr - 03:03:59 10° NNW 03:08:12 62° WSW 03:12:38 10° S night (unlit)
29 Apr - 13:51:32 10° SSE 13:56:26 25° ESE 14:01:12 10° ENE daylight
29 Apr - 15:33:46 10° SW 15:38:50 28° WNW 15:43:43 10° NNW daylight
30 Apr - 02:21:41 10° N 02:25:50 51° ENE 02:30:11 10° SSE night (unlit)
30 Apr - 13:11:33 10° SE 13:13:57 12° ESE 13:16:19 10° E daylight
30 Apr - 14:50:32 10° SSW 14:56:28 54° WNW 15:02:08 10° N daylight
01 May - 01:40:13 10° NNE 01:43:30 21° ENE 01:46:52 10° ESE night (unlit)
01 May - 03:23:19 10° WNW 03:25:47 15° WSW 03:28:19 10° SSW night (unlit)
01 May - 14:07:59 10° SSW 14:14:05 77° ESE 14:19:55 10° NNE daylight
02 May - 02:39:25 10° NW 02:43:20 34° WSW 02:47:25 10° S night (unlit)
02 May - 13:26:01 10° S 13:31:39 39° ESE 13:37:04 10° NE daylight
02 May - 15:10:09 10° WSW 15:13:59 17° WNW 15:17:43 10° NNW daylight
